• In Switzerland
  • List of Countries
  • For 7 days
  • Water Temperature
  • Satellite Maps
  • Weather Map
  • Weather Widgets
  • user-avatar
    Login

    Hourly Weather Kalgoorlie

    Today, 19 September, Wednesday

    Time Temperature Precipitation Wind Pressure Humidity
    00:00 +12°C° 0 mm 3 mps 737 mmHg 68%
    01:00 +11°C° 0 mm 3 mps 737 mmHg 74%
    02:00 +11°C° 0 mm 3 mps 736 mmHg 79%
    03:00 +10°C° 0 mm 3 mps 736 mmHg 83%
    04:00 +10°C° 0 mm 3 mps 737 mmHg 87%
    05:00 +9°C° 0 mm 2 mps 737 mmHg 90%
    06:00 +10°C° 0 mm 2 mps 737 mmHg 85%
    07:00 +11°C° 0 mm 3 mps 737 mmHg 79%
    08:00 +12°C° 0 mm 3 mps 738 mmHg 73%
    09:00 +13°C° 0 mm 3 mps 738 mmHg 68%
    10:00 +15°C° 0 mm 2 mps 737 mmHg 63%
    11:00 +16°C° 0 mm 2 mps 737 mmHg 58%
    12:00 +16°C° 0 mm 2 mps 736 mmHg 54%
    13:00 +17°C° 0 mm 2 mps 736 mmHg 51%
    14:00 +18°C° 0 mm 2 mps 736 mmHg 48%
    15:00 +18°C° 0 mm 2 mps 736 mmHg 46%
    16:00 +18°C° 0 mm 2 mps 736 mmHg 45%
    17:00 +19°C° 0 mm 2 mps 736 mmHg 44%
    18:00 +18°C° 0 mm 3 mps 736 mmHg 48%
    19:00 +16°C° 0 mm 3 mps 736 mmHg 52%
    20:00 +14°C° 0 mm 3 mps 736 mmHg 56%
    21:00 +14°C° 0 mm 3 mps 736 mmHg 58%
    22:00 +13°C° 0 mm 3 mps 736 mmHg 60%
    23:00 +13°C° 0 mm 3 mps 736 mmHg 63%

    Tomorrow, 20 September, Thursday

    Time Temperature Precipitation Wind Pressure Humidity
    00:00 +12°C° 0 mm 3 mps 736 mmHg 64%
    01:00 +12°C° 0 mm 3 mps 736 mmHg 66%
    02:00 +11°C° 0 mm 3 mps 736 mmHg 68%
    03:00 +11°C° 0 mm 3 mps 736 mmHg 69%
    04:00 +11°C° 0 mm 3 mps 736 mmHg 71%
    05:00 +10°C° 0 mm 3 mps 736 mmHg 73%
    06:00 +12°C° 0 mm 3 mps 736 mmHg 67%
    07:00 +13°C° 0 mm 4 mps 736 mmHg 62%
    08:00 +14°C° 0 mm 4 mps 736 mmHg 56%
    09:00 +17°C° 0 mm 4 mps 736 mmHg 50%
    10:00 +19°C° 0 mm 3 mps 736 mmHg 44%
    11:00 +20°C° 0 mm 3 mps 735 mmHg 38%
    12:00 +21°C° 0 mm 2 mps 735 mmHg 35%
    13:00 +23°C° 0 mm 2 mps 734 mmHg 31%
    14:00 +24°C° 0 mm 2 mps 733 mmHg 27%
    15:00 +24°C° 0 mm 2 mps 733 mmHg 27%
    16:00 +24°C° 0 mm 2 mps 733 mmHg 26%
    17:00 +25°C° 0 mm 2 mps 733 mmHg 25%
    18:00 +23°C° 0 mm 2 mps 733 mmHg 28%
    19:00 +21°C° 0 mm 2 mps 734 mmHg 30%
    20:00 +20°C° 0 mm 2 mps 734 mmHg 33%
    21:00 +20°C° 0 mm 3 mps 734 mmHg 34%
    22:00 +19°C° 0 mm 3 mps 734 mmHg 34%
    23:00 +19°C° 0 mm 3 mps 734 mmHg 35%

    Day after tomorrow, 21 September, Friday

    Time Temperature Precipitation Wind Pressure Humidity
    00:00 +18°C° 0 mm 3 mps 734 mmHg 36%
    01:00 +18°C° 0 mm 4 mps 734 mmHg 37%
    02:00 +17°C° 0 mm 4 mps 733 mmHg 38%
    03:00 +17°C° 0 mm 4 mps 733 mmHg 39%
    04:00 +17°C° 0 mm 4 mps 733 mmHg 40%
    05:00 +15°C° 0 mm 4 mps 733 mmHg 41%
    06:00 +18°C° 0 mm 4 mps 734 mmHg 38%
    07:00 +19°C° 0 mm 5 mps 734 mmHg 35%
    08:00 +21°C° 0 mm 6 mps 734 mmHg 31%
    09:00 +23°C° 0 mm 6 mps 734 mmHg 27%
    10:00 +25°C° 0 mm 5 mps 734 mmHg 23%
    11:00 +27°C° 0 mm 5 mps 734 mmHg 19%
    12:00 +28°C° 0 mm 5 mps 734 mmHg 18%
    13:00 +29°C° 0 mm 5 mps 733 mmHg 16%
    14:00 +29°C° 0 mm 4 mps 732 mmHg 15%
    15:00 +29°C° 0 mm 4 mps 732 mmHg 15%
    16:00 +29°C° 0 mm 4 mps 732 mmHg 15%
    17:00 +29°C° 0 mm 4 mps 732 mmHg 14%
    18:00 +27°C° 0 mm 3 mps 733 mmHg 16%
    19:00 +26°C° 0 mm 3 mps 733 mmHg 17%
    20:00 +24°C° 0 mm 3 mps 733 mmHg 19%
    21:00 +22°C° 0 mm 3 mps 734 mmHg 20%
    22:00 +22°C° 0 mm 3 mps 734 mmHg 20%
    23:00 +21°C° 0 mm 3 mps 734 mmHg 21%

    22 September, Saturday

    Time Temperature Precipitation Wind Pressure Humidity
    00:00 +20°C° 0 mm 3 mps 734 mmHg 24%
    01:00 +19°C° 0 mm 3 mps 733 mmHg 27%
    02:00 +18°C° 0 mm 3 mps 733 mmHg 30%
    03:00 +18°C° 0 mm 3 mps 733 mmHg 31%
    04:00 +17°C° 0 mm 3 mps 733 mmHg 32%
    05:00 +17°C° 0 mm 3 mps 734 mmHg 33%
    06:00 +18°C° 0 mm 3 mps 734 mmHg 30%
    07:00 +20°C° 0 mm 4 mps 735 mmHg 27%
    08:00 +22°C° 0 mm 4 mps 735 mmHg 24%
    09:00 +25°C° 0 mm 5 mps 735 mmHg 20%
    10:00 +27°C° 0 mm 5 mps 735 mmHg 17%
    11:00 +30°C° 0 mm 6 mps 735 mmHg 13%
    12:00 +30°C° 0 mm 6 mps 734 mmHg 12%
    13:00 +32°C° 0 mm 6 mps 733 mmHg 12%
    14:00 +32°C° 0 mm 5 mps 732 mmHg 11%
    15:00 +32°C° 0 mm 5 mps 732 mmHg 12%
    16:00 +30°C° 0 mm 5 mps 732 mmHg 13%
    17:00 +30°C° 0 mm 4 mps 732 mmHg 15%
    18:00 +29°C° 0 mm 4 mps 732 mmHg 18%
    19:00 +28°C° 0 mm 4 mps 732 mmHg 22%
    20:00 +26°C° 0 mm 4 mps 733 mmHg 25%
    21:00 +25°C° 0.3 mm 4 mps 733 mmHg 33%
    22:00 +23°C° 0.3 mm 4 mps 733 mmHg 40%
    23:00 +21°C° 0.3 mm 4 mps 733 mmHg 47%

    23 September, Sunday

    Time Temperature Precipitation Wind Pressure Humidity
    00:00 +21°C° 0.4 mm 5 mps 733 mmHg 51%
    01:00 +20°C° 0.4 mm 5 mps 732 mmHg 54%
    02:00 +19°C° 0.4 mm 6 mps 732 mmHg 58%
    03:00 +19°C° 0.1 mm 5 mps 732 mmHg 60%
    04:00 +19°C° 0.1 mm 5 mps 732 mmHg 63%
    05:00 +18°C° 0.1 mm 4 mps 732 mmHg 65%
    06:00 +19°C° 0 mm 4 mps 733 mmHg 59%
    07:00 +21°C° 0 mm 4 mps 733 mmHg 52%
    08:00 +22°C° 0 mm 4 mps 733 mmHg 46%
    09:00 +25°C° 0 mm 4 mps 733 mmHg 39%
    10:00 +27°C° 0 mm 5 mps 733 mmHg 32%
    11:00 +29°C° 0 mm 5 mps 733 mmHg 24%
    12:00 +30°C° 0 mm 4 mps 732 mmHg 23%
    13:00 +30°C° 0 mm 4 mps 731 mmHg 21%
    14:00 +32°C° 0 mm 4 mps 730 mmHg 19%
    15:00 +31°C° 0 mm 3 mps 730 mmHg 20%
    16:00 +30°C° 0 mm 3 mps 730 mmHg 21%
    17:00 +30°C° 0 mm 2 mps 730 mmHg 23%
    18:00 +29°C° 0 mm 2 mps 730 mmHg 23%
    19:00 +28°C° 0 mm 2 mps 731 mmHg 24%
    20:00 +28°C° 0 mm 2 mps 731 mmHg 25%
    21:00 +27°C° 0 mm 3 mps 731 mmHg 28%
    22:00 +26°C° 0 mm 4 mps 731 mmHg 31%
    23:00 +25°C° 0 mm 5 mps 731 mmHg 34%

    24 September, Monday

    Time Temperature Precipitation Wind Pressure Humidity
    00:00 +22°C° 0 mm 5 mps 730 mmHg 41%
    01:00 +21°C° 0 mm 4 mps 730 mmHg 48%
    02:00 +20°C° 0 mm 4 mps 730 mmHg 55%
    03:00 +19°C° 0 mm 4 mps 730 mmHg 60%
    04:00 +18°C° 0 mm 4 mps 730 mmHg 64%
    05:00 +17°C° 0 mm 4 mps 730 mmHg 68%
    06:00 +18°C° 0 mm 4 mps 730 mmHg 64%
    07:00 +19°C° 0 mm 4 mps 730 mmHg 60%
    08:00 +20°C° 0 mm 4 mps 730 mmHg 55%
    09:00 +22°C° 0 mm 4 mps 730 mmHg 48%
    10:00 +25°C° 0 mm 4 mps 730 mmHg 41%
    11:00 +27°C° 0 mm 3 mps 730 mmHg 33%
    12:00 +28°C° 0 mm 4 mps 729 mmHg 30%
    13:00 +29°C° 0 mm 5 mps 728 mmHg 26%
    14:00 +30°C° 0 mm 5 mps 728 mmHg 22%
    15:00 +30°C° 0 mm 5 mps 728 mmHg 23%
    16:00 +29°C° 0 mm 6 mps 728 mmHg 23%
    17:00 +29°C° 0 mm 6 mps 728 mmHg 23%
    18:00 +27°C° 0 mm 6 mps 729 mmHg 30%
    19:00 +24°C° 0 mm 6 mps 729 mmHg 37%
    20:00 +22°C° 0 mm 7 mps 730 mmHg 44%
    21:00 +21°C° 0 mm 7 mps 729 mmHg 52%
    22:00 +19°C° 0 mm 6 mps 729 mmHg 60%
    23:00 +17°C° 0 mm 6 mps 729 mmHg 68%
    Show more